Weather History for Lanai City, HI

Change the Weather History Date:

Monday, February 4, 2013

  Actual Average Record
Temperature  
Mean Temperature 68 °F -  
Max Temperature 73 °F 75 °F 82 °F (2011)
Min Temperature 63 °F 57 °F 51 °F (1993)
Cooling Degree Days 3    
Growing Degree Days 18 (Base 50)    
Moisture  
Dew Point 59 °F    
Average Humidity 73    
Maximum Humidity 84    
Minimum Humidity 60    
Precipitation  
Precipitation 0.00 in - - ()
Sea Level Pressure  
Sea Level Pressure 30.08 in    
Wind  
Wind Speed 20 mph (NE)    
Max Wind Speed 29 mph    
Max Gust Speed 37 mph    
Visibility 10 miles    
Events Rain    
Averages and records for this station are not official NWS values.
T = Trace of Precipitation, MM = Missing Value Source: NWS Daily Summary

Daily Weather History Graph

Daily Weather History Graph

Search for Another Location

Airport:

Trip Planner

Search our weather history database for the weather conditions in past years. The results will help you decide how hot, cold, wet, or windy it might be!

Date:

Astronomy

Feb. 04, 2013 Rise Set
Actual Time 7:03 AM HST 6:20 PM HST
Civil Twilight 6:40 AM HST 6:43 PM HST
Nautical Twilight 6:13 AM HST 7:10 PM HST
Astronomical Twilight 5:47 AM HST 7:36 PM HST
Moon 1:41 AM HST (2/4) 1:05 PM HST (2/4)
Length of Visible Light 12h 03m
Length of Day
11h 17m
Waning Crescent, 35% of the Moon is Illuminated
Feb 4
Waning Crescent
Feb 9
New
Feb 17
First Quarter
Feb 25
Full
Mar 4
Last Quarter

Hourly Weather History & Observations

Time (HST) Temp. Dew Point Humidity Pressure Visibility Wind Dir Wind Speed Gust Speed Precip Events Conditions
12:56 AM 64.9 °F 55.9 °F 73% 30.07 in 10.0 mi ENE 23.0 mph 36.8 mph N/A   Clear
1:56 AM 64.9 °F 54.9 °F 70% 30.07 in 10.0 mi NE 20.7 mph 29.9 mph N/A   Clear
2:56 AM 64.9 °F 55.9 °F 73% 30.05 in 10.0 mi NE 18.4 mph 34.5 mph N/A   Clear
3:56 AM 63.9 °F 54.9 °F 72% 30.07 in 10.0 mi East 16.1 mph 20.7 mph N/A   Partly Cloudy
4:56 AM 63.9 °F 56.8 °F 78% 30.08 in 10.0 mi ENE 10.4 mph - N/A   Clear
5:56 AM 63.9 °F 59.0 °F 84% 30.08 in 10.0 mi NE 17.3 mph 25.3 mph N/A   Clear
6:56 AM 64.9 °F 59.9 °F 84% 30.10 in 10.0 mi NE 20.7 mph 29.9 mph N/A   Clear
7:56 AM 66.9 °F 59.9 °F 78% 30.11 in 10.0 mi NE 19.6 mph 28.8 mph N/A   Clear
8:56 AM 70.0 °F 61.0 °F 73% 30.11 in 10.0 mi ENE 15.0 mph - N/A   Scattered Clouds
9:56 AM 72.9 °F 61.0 °F 66% 30.10 in 10.0 mi ENE 20.7 mph 28.8 mph N/A   Partly Cloudy
10:56 AM 73.4 °F 60.8 °F 65% 30.14 in 10.0 mi NE 24.2 mph 28.8 mph N/A   Scattered Clouds
11:56 AM 72.9 °F 59.0 °F 62% 30.08 in 10.0 mi ENE 19.6 mph 26.5 mph N/A   Mostly Cloudy
12:15 PM 71.6 °F 57.2 °F 60% 30.12 in 10.0 mi NE 20.7 mph 28.8 mph N/A   Mostly Cloudy
12:37 PM 73.4 °F 59.0 °F 61% 30.12 in 10.0 mi NE 20.7 mph 29.9 mph N/A   Mostly Cloudy
12:56 PM 72.9 °F 59.9 °F 64% 30.07 in 10.0 mi NE 24.2 mph 29.9 mph N/A   Mostly Cloudy
1:56 PM 72.0 °F 57.9 °F 61% 30.05 in 10.0 mi NE 20.7 mph 31.1 mph N/A   Overcast
2:56 PM 68.9 °F 59.9 °F 73% 30.04 in 10.0 mi NNE 23.0 mph - 0.00 in   Overcast
3:56 PM 72.0 °F 61.0 °F 68% 30.03 in 10.0 mi NE 28.8 mph 32.2 mph 0.00 in   Clear
4:56 PM 71.6 °F 60.8 °F 69% 30.09 in 10.0 mi ENE 24.2 mph 29.9 mph N/A   Mostly Cloudy
5:56 PM 65.8 °F 59.0 °F 79% 30.06 in 10.0 mi NE 24.2 mph 32.2 mph N/A   Partly Cloudy
6:56 PM 65.8 °F 59.0 °F 79% 30.07 in 10.0 mi NE 19.6 mph 27.6 mph N/A   Mostly Cloudy
7:56 PM 66.2 °F 60.8 °F 83% 30.12 in 10.0 mi NE 19.6 mph - N/A Rain Light Rain
8:56 PM 64.9 °F 59.0 °F 81% 30.08 in 10.0 mi NE 24.2 mph - 0.00 in   Mostly Cloudy
9:56 PM 65.8 °F 57.9 °F 76% 30.08 in 10.0 mi NE 25.3 mph 29.9 mph N/A   Scattered Clouds
10:56 PM 65.8 °F 59.0 °F 79% 30.07 in 10.0 mi ENE 19.6 mph 26.5 mph 0.00 in   Clear
11:56 PM 65.8 °F 59.0 °F 79% 30.07 in 10.0 mi ENE 11.5 mph - N/A   Scattered Clouds